Weather History for KIRS - May, 2014

Change the Weather History Date:

Wednesday, May 7, 2014

  Actual Average (KHAI) Record (KHAI)
Temperature  
Mean Temperature 60 °F -  
Max Temperature 71 °F 67 °F 85 °F (1949)
Min Temperature 48 °F 43 °F 25 °F (1989)
Degree Days  
Heating Degree Days 6    
Growing Degree Days 10 (Base 50)    
Moisture  
Dew Point 45 °F    
Average Humidity 59    
Maximum Humidity 72    
Minimum Humidity 50    
Precipitation  
Precipitation 0.00 in - - ()
Sea Level Pressure  
Sea Level Pressure 29.94 in    
Wind  
Wind Speed 13 mph (East)    
Max Wind Speed 20 mph    
Max Gust Speed 24 mph    
Visibility 10 miles    
Events      
Averages and records for this station are not official NWS values.
T = Trace of Precipitation, MM = Missing Value Source: NWS Daily Summary

Daily Weather History Graph

Daily Weather History Graph

Search for Another Location

Airport or City:

Trip Planner

Search our weather history database for the weather conditions in past years. The results will help you decide how hot, cold, wet, or windy it might be!

Date:

Astronomy

May. 07, 2014 Rise Set
Actual Time 6:30 AM EDT 8:46 PM EDT
Civil Twilight 5:59 AM EDT 9:17 PM EDT
Nautical Twilight 5:21 AM EDT 9:56 PM EDT
Astronomical Twilight 4:39 AM EDT 10:38 PM EDT
Moon 1:44 PM EDT (5/7) 2:35 AM EDT (5/7)
Length of Visible Light 15h 18m
Length of Day
14h 16m
First Quarter, 55% of the Moon is Illuminated
May 7
First Quarter
May 14
Full
May 21
Last Quarter
May 28
New
Jun 5
First Quarter

Hourly Weather History & Observations

Time (EDT) Temp. Dew Point Humidity Pressure Visibility Wind Dir Wind Speed Gust Speed Precip Events Conditions
12:14 AM 51.8 °F 35.6 °F 54% 29.99 in 10.0 mi East 12.7 mph 20.7 mph N/A   Scattered Clouds
12:35 AM 51.8 °F 35.6 °F 54% 29.98 in 10.0 mi East 15.0 mph 23.0 mph N/A   Scattered Clouds
12:54 AM 51.8 °F 35.6 °F 54% 29.99 in 10.0 mi East 11.5 mph 20.7 mph N/A   Mostly Cloudy
1:15 AM 53.6 °F 35.6 °F 51% 29.98 in 10.0 mi East 11.5 mph 18.4 mph N/A   Mostly Cloudy
1:35 AM 51.8 °F 35.6 °F 54% 29.98 in 10.0 mi East 15.0 mph 18.4 mph N/A   Mostly Cloudy
1:54 AM 51.8 °F 35.6 °F 54% 29.97 in 10.0 mi East 16.1 mph 20.7 mph N/A   Mostly Cloudy
2:15 AM 51.8 °F 37.4 °F 58% 29.98 in 10.0 mi East 17.3 mph 24.2 mph N/A   Mostly Cloudy
2:35 AM 51.8 °F 37.4 °F 58% 29.97 in 10.0 mi East 18.4 mph 24.2 mph N/A   Mostly Cloudy
2:54 AM 51.8 °F 37.4 °F 58% 29.96 in 10.0 mi East 16.1 mph 23.0 mph N/A   Overcast
3:15 AM 51.8 °F 37.4 °F 58% 29.95 in 10.0 mi East 16.1 mph 19.6 mph N/A   Overcast
3:35 AM 51.8 °F 37.4 °F 58% 29.95 in 10.0 mi East 15.0 mph 20.7 mph N/A   Mostly Cloudy
3:55 AM 51.8 °F 37.4 °F 58% 29.94 in 10.0 mi East 16.1 mph 23.0 mph N/A   Scattered Clouds
4:15 AM 50.0 °F 37.4 °F 62% 29.93 in 10.0 mi East 18.4 mph 21.9 mph N/A   Scattered Clouds
4:34 AM 50.0 °F 37.4 °F 62% 29.94 in 10.0 mi East 15.0 mph 20.7 mph N/A   Clear
4:55 AM 50.0 °F 37.4 °F 62% 29.95 in 10.0 mi East 13.8 mph 18.4 mph N/A   Mostly Cloudy
5:15 AM 50.0 °F 35.6 °F 58% 29.94 in 10.0 mi East 12.7 mph - N/A   Mostly Cloudy
5:34 AM 50.0 °F 35.6 °F 58% 29.94 in 10.0 mi East 11.5 mph - N/A   Clear
5:55 AM 48.2 °F 35.6 °F 62% 29.93 in 10.0 mi East 12.7 mph 17.3 mph N/A   Clear
6:15 AM 50.0 °F 35.6 °F 58% 29.94 in 10.0 mi East 11.5 mph 16.1 mph N/A   Clear
6:34 AM 50.0 °F 37.4 °F 62% 29.95 in 10.0 mi East 9.2 mph - N/A   Clear
6:55 AM 50.0 °F 37.4 °F 62% 29.96 in 10.0 mi East 10.4 mph - N/A   Clear
7:14 AM 51.8 °F 37.4 °F 58% 29.95 in 10.0 mi East 10.4 mph - N/A   Clear
7:35 AM 51.8 °F 39.2 °F 62% 29.95 in 10.0 mi East 12.7 mph - N/A   Clear
7:55 AM 51.8 °F 39.2 °F 62% 29.98 in 10.0 mi NE 10.4 mph - N/A   Clear
8:14 AM 51.8 °F 39.2 °F 62% 29.98 in 10.0 mi ENE 10.4 mph - N/A   Clear
8:35 AM 51.8 °F 41.0 °F 67% 29.97 in 10.0 mi East 19.6 mph - N/A   Clear
8:55 AM 51.8 °F 41.0 °F 67% 29.97 in 10.0 mi East 16.1 mph - N/A   Clear
9:14 AM 53.6 °F 42.8 °F 67% 29.97 in 10.0 mi East 13.8 mph - N/A   Clear
9:35 AM 53.6 °F 42.8 °F 67% 29.97 in 10.0 mi East 13.8 mph 23.0 mph N/A   Clear
9:55 AM 55.4 °F 42.8 °F 63% 29.97 in 10.0 mi SE 12.7 mph 18.4 mph N/A   Clear
10:14 AM 55.4 °F 42.8 °F 63% 29.95 in 10.0 mi ESE 18.4 mph - N/A   Clear
10:35 AM 57.2 °F 44.6 °F 63% 29.97 in 10.0 mi East 11.5 mph 18.4 mph N/A   Clear
10:54 AM 57.2 °F 44.6 °F 63% 29.98 in 10.0 mi East 11.5 mph - N/A   Clear
11:15 AM 59.0 °F 44.6 °F 59% 29.97 in 10.0 mi ESE 15.0 mph 18.4 mph N/A   Clear
11:35 AM 60.8 °F 44.6 °F 55% 29.96 in 10.0 mi East 17.3 mph - N/A   Clear
11:53 AM 60.8 °F 44.6 °F 55% 29.95 in 10.0 mi ESE 12.7 mph - N/A   Clear
12:15 PM 60.8 °F 44.6 °F 55% 29.95 in 10.0 mi ESE 12.7 mph 19.6 mph N/A   Clear
12:35 PM 62.6 °F 46.4 °F 55% 29.95 in 10.0 mi ESE 12.7 mph 18.4 mph N/A   Clear
1:15 PM 62.6 °F 48.2 °F 59% 29.95 in 10.0 mi ESE 11.5 mph 17.3 mph N/A   Clear
1:35 PM 64.4 °F 48.2 °F 56% 29.93 in 10.0 mi ESE 9.2 mph - N/A   Clear
2:15 PM 66.2 °F 48.2 °F 52% 29.93 in 10.0 mi SE 10.4 mph 18.4 mph N/A   Clear
2:35 PM 66.2 °F 50.0 °F 56% 29.93 in 10.0 mi ESE 10.4 mph - N/A   Clear
2:54 PM 68.0 °F 50.0 °F 52% 29.93 in 10.0 mi SE 12.7 mph - N/A   Clear
3:15 PM 69.8 °F 51.8 °F 53% 29.92 in 10.0 mi ESE 12.7 mph 16.1 mph N/A   Clear
3:34 PM 69.8 °F 51.8 °F 53% 29.91 in 10.0 mi East 12.7 mph - N/A   Clear
3:55 PM 69.8 °F 51.8 °F 53% 29.90 in 10.0 mi East 15.0 mph - N/A   Clear
4:15 PM 71.6 °F 51.8 °F 50% 29.90 in 10.0 mi ESE 10.4 mph - N/A   Clear
4:34 PM 71.6 °F 51.8 °F 50% 29.90 in 10.0 mi ESE 6.9 mph - N/A   Clear
4:54 PM 69.8 °F 51.8 °F 53% 29.90 in 10.0 mi East 10.4 mph - N/A   Clear
5:15 PM 69.8 °F 51.8 °F 53% 29.89 in 10.0 mi East 10.4 mph - N/A   Clear
5:34 PM 69.8 °F 53.6 °F 56% 29.90 in 10.0 mi East 11.5 mph - N/A   Clear
5:54 PM 71.6 °F 53.6 °F 53% 29.89 in 10.0 mi East 11.5 mph - N/A   Clear
6:15 PM 69.8 °F 53.6 °F 56% 29.88 in 10.0 mi East 13.8 mph - N/A   Clear
6:34 PM 69.8 °F 53.6 °F 56% 29.87 in 10.0 mi East 11.5 mph - N/A   Clear
6:55 PM 69.8 °F 53.6 °F 56% 29.91 in 10.0 mi ENE 9.2 mph - N/A   Clear
7:15 PM 69.8 °F 51.8 °F 53% 29.90 in 10.0 mi ENE 11.5 mph - N/A   Clear
7:34 PM 68.0 °F 51.8 °F 56% 29.91 in 10.0 mi NE 8.1 mph - N/A   Clear
7:55 PM 66.2 °F 51.8 °F 60% 29.90 in 10.0 mi East 11.5 mph - N/A   Clear
8:15 PM 66.2 °F 51.8 °F 60% 29.89 in 10.0 mi East 10.4 mph - N/A   Clear
8:34 PM 66.2 °F 51.8 °F 60% 29.89 in 10.0 mi East 13.8 mph 18.4 mph N/A   Clear
8:55 PM 64.4 °F 51.8 °F 64% 29.89 in 10.0 mi East 9.2 mph 17.3 mph N/A   Clear
9:15 PM 64.4 °F 51.8 °F 64% 29.89 in 10.0 mi East 16.1 mph 20.7 mph N/A   Clear
9:34 PM 64.4 °F 51.8 °F 64% 29.89 in 10.0 mi East 17.3 mph - N/A   Clear
9:55 PM 62.6 °F 51.8 °F 68% 29.90 in 10.0 mi ESE 12.7 mph 21.9 mph N/A   Clear
10:15 PM 60.8 °F 51.8 °F 72% 29.91 in 10.0 mi East 17.3 mph 21.9 mph N/A   Clear
10:35 PM 59.0 °F 48.2 °F 67% 29.92 in 10.0 mi East 15.0 mph - N/A   Clear
10:55 PM 57.2 °F 46.4 °F 67% 29.91 in 10.0 mi ESE 16.1 mph 19.6 mph N/A   Clear
11:14 PM 55.4 °F 46.4 °F 72% 29.91 in 10.0 mi East 13.8 mph 21.9 mph N/A   Clear
11:35 PM 55.4 °F 46.4 °F 72% 29.92 in 10.0 mi ESE 9.2 mph - N/A   Clear
11:55 PM 55.4 °F 46.4 °F 72% 29.91 in 10.0 mi ESE 8.1 mph - N/A   Clear